Location: *
(33.6842°N, 117.7925°W)
Time: 23:01:31
(UTC+00:00)

Cosmos 1606 Rocket - Pass Details

Date: 21 October 2019
Orbit: 602 x 633 km, 82.5° (Epoch: 12 November)

Event Time Altitude Azimuth Distance (km) Brightness Sun altitude
Rises 12:42:33 0° 347° (NNW) 2,858 6.8 -16.9°
Reaches altitude 10° 12:44:48 10° 343° (NNW) 1,952 5.9 -16.5°
Maximum altitude 12:49:00 53° 267° (W) 746 3.6 -15.6°
Drops below altitude 10° 12:53:11 10° 190° (S) 1,949 6.0 -14.7°
Sets 12:55:26 0° 186° (S) 2,853 7.0 -14.3°
